Time,TemperatureF,DewpointF,PressureIn,WindDirection,WindDirectionDegrees,WindSpeedMPH,WindSpeedGustMPH,Humidity,HourlyPrecipIn,Conditions,Clouds,dailyrainin,SoftwareType,DateUTC
2013-01-06 00:11:00,22.3,19.0,30.17,ESE,117,0.0,1.0,88,0.00,,,0.00,weatherlink.com 1.10,2013-01-06 05:11:00,
2013-01-06 00:25:00,22.3,20.0,30.17,ESE,107,2.0,2.0,89,0.00,,,0.00,weatherlink.com 1.10,2013-01-06 05:25:00,
2013-01-06 00:40:00,22.4,20.0,30.17,South,177,0.0,1.0,89,0.00,,,0.00,weatherlink.com 1.10,2013-01-06 05:40:00,
2013-01-06 00:55:00,22.6,20.0,30.17,WSW,252,0.0,1.0,89,0.00,,,0.00,weatherlink.com 1.10,2013-01-06 05:55:00,
2013-01-06 01:10:00,22.8,20.0,30.17,SW,221,1.0,1.0,89,0.00,,,0.00,weatherlink.com 1.10,2013-01-06 06:10:00,
2013-01-06 01:25:00,23.1,20.0,30.18,South,181,0.0,1.0,89,0.00,,,0.00,weatherlink.com 1.10,2013-01-06 06:25:00,
2013-01-06 01:40:00,23.1,20.0,30.20,South,180,0.0,1.0,89,0.00,,,0.00,weatherlink.com 1.10,2013-01-06 06:40:00,
2013-01-06 01:55:00,23.4,21.0,30.21,SSW,204,0.0,1.0,89,0.00,,,0.00,weatherlink.com 1.10,2013-01-06 06:55:00,
2013-01-06 02:10:00,23.7,21.0,30.22,SSW,204,0.0,1.0,88,0.00,,,0.00,weatherlink.com 1.10,2013-01-06 07:10:00,
2013-01-06 02:25:00,23.8,21.0,30.20,South,186,0.0,1.0,88,0.00,,,0.00,weatherlink.com 1.10,2013-01-06 07:25:00,
2013-01-06 02:40:00,23.9,21.0,30.18,South,186,0.0,0.0,88,0.00,,,0.00,weatherlink.com 1.10,2013-01-06 07:40:00,
2013-01-06 02:55:00,24.1,21.0,30.18,South,190,0.0,0.0,88,0.00,,,0.00,weatherlink.com 1.10,2013-01-06 07:55:00,
2013-01-06 03:11:00,24.2,21.0,30.15,South,190,0.0,1.0,87,0.00,,,0.00,weatherlink.com 1.10,2013-01-06 08:11:00,
2013-01-06 03:25:00,24.4,21.0,30.16,South,190,0.0,0.0,88,0.00,,,0.00,weatherlink.com 1.10,2013-01-06 08:25:00,
2013-01-06 03:40:00,24.6,21.0,30.15,ESE,108,0.0,1.0,87,0.00,,,0.00,weatherlink.com 1.10,2013-01-06 08:40:00,
2013-01-06 03:55:00,24.9,22.0,30.13,ESE,110,0.0,1.0,87,0.00,,,0.00,weatherlink.com 1.10,2013-01-06 08:55:00,
2013-01-06 04:10:00,25.1,22.0,30.13,SW,229,0.0,0.0,87,0.00,,,0.00,weatherlink.com 1.10,2013-01-06 09:10:00,
2013-01-06 04:25:00,25.4,22.0,30.12,SW,229,0.0,1.0,86,0.00,,,0.00,weatherlink.com 1.10,2013-01-06 09:25:00,
2013-01-06 04:40:00,25.6,22.0,30.11,SW,229,0.0,1.0,85,0.00,,,0.00,weatherlink.com 1.10,2013-01-06 09:40:00,
2013-01-06 04:55:00,25.7,22.0,30.11,SW,229,0.0,0.0,86,0.00,,,0.00,weatherlink.com 1.10,2013-01-06 09:55:00,
2013-01-06 05:10:00,25.8,22.0,30.10,SW,228,1.0,1.0,85,0.00,,,0.00,weatherlink.com 1.10,2013-01-06 10:10:00,
2013-01-06 05:25:00,25.7,22.0,30.10,SW,228,0.0,0.0,87,0.00,,,0.00,weatherlink.com 1.10,2013-01-06 10:25:00,
2013-01-06 05:40:00,25.7,23.0,30.08,SSW,197,0.0,1.0,89,0.00,,,0.00,weatherlink.com 1.10,2013-01-06 10:40:00,
2013-01-06 05:55:00,25.7,23.0,30.08,SSW,197,0.0,0.0,90,0.00,,,0.00,weatherlink.com 1.10,2013-01-06 10:55:00,
2013-01-06 06:10:00,25.5,23.0,30.08,SSW,197,0.0,1.0,91,0.00,,,0.00,weatherlink.com 1.10,2013-01-06 11:10:00,
2013-01-06 06:25:00,25.7,24.0,30.07,SSW,197,0.0,1.0,91,0.00,,,0.00,weatherlink.com 1.10,2013-01-06 11:25:00,
2013-01-06 06:40:00,25.9,24.0,30.07,SSW,197,0.0,0.0,92,0.00,,,0.00,weatherlink.com 1.10,2013-01-06 11:40:00,
2013-01-06 06:58:00,26.1,24.0,30.07,SSW,197,0.0,0.0,92,0.00,,,0.00,weatherlink.com 1.10,2013-01-06 11:58:00,
2013-01-06 07:11:00,26.2,24.0,30.07,SW,224,0.0,1.0,92,0.00,,,0.00,weatherlink.com 1.10,2013-01-06 12:11:00,
2013-01-06 07:26:00,26.4,24.0,30.06,SW,224,0.0,1.0,92,0.00,,,0.00,weatherlink.com 1.10,2013-01-06 12:26:00,
2013-01-06 07:41:00,26.6,25.0,30.06,WSW,255,1.0,1.0,93,0.00,,,0.00,weatherlink.com 1.10,2013-01-06 12:41:00,
2013-01-06 07:56:00,26.9,25.0,30.06,SSW,208,1.0,1.0,93,0.00,,,0.00,weatherlink.com 1.10,2013-01-06 12:56:00,
2013-01-06 08:11:00,27.1,25.0,30.05,SW,215,0.0,1.0,93,0.00,,,0.00,weatherlink.com 1.10,2013-01-06 13:11:00,
2013-01-06 08:26:00,27.4,26.0,30.06,SW,224,1.0,1.0,93,0.00,,,0.00,weatherlink.com 1.10,2013-01-06 13:26:00,
2013-01-06 08:41:00,28.1,26.0,30.05,SW,221,0.0,1.0,93,0.00,,,0.00,weatherlink.com 1.10,2013-01-06 13:41:00,
2013-01-06 08:56:00,29.4,27.0,30.05,SSW,212,1.0,2.0,92,0.00,,,0.00,weatherlink.com 1.10,2013-01-06 13:56:00,
2013-01-06 09:11:00,30.5,28.0,30.05,SW,235,1.0,2.0,89,0.00,,,0.00,weatherlink.com 1.10,2013-01-06 14:11:00,
2013-01-06 09:26:00,31.6,28.0,30.04,SW,231,0.0,4.0,87,0.00,,,0.00,weatherlink.com 1.10,2013-01-06 14:26:00,
2013-01-06 09:41:00,32.6,29.0,30.04,WSW,254,1.0,3.0,85,0.00,,,0.00,weatherlink.com 1.10,2013-01-06 14:41:00,
2013-01-06 09:56:00,33.7,29.0,30.04,SW,232,1.0,3.0,82,0.00,,,0.00,weatherlink.com 1.10,2013-01-06 14:56:00,
2013-01-06 10:11:00,34.7,29.0,30.03,SSW,210,1.0,4.0,78,0.00,,,0.00,weatherlink.com 1.10,2013-01-06 15:11:00,
2013-01-06 10:26:00,35.5,29.0,30.02,WSW,245,0.0,4.0,77,0.00,,,0.00,weatherlink.com 1.10,2013-01-06 15:26:00,
2013-01-06 10:41:00,36.2,29.0,30.02,West,273,1.0,7.0,76,0.00,,,0.00,weatherlink.com 1.10,2013-01-06 15:41:00,
2013-01-06 10:56:00,36.7,30.0,30.00,SW,228,1.0,6.0,76,0.00,,,0.00,weatherlink.com 1.10,2013-01-06 15:56:00,
2013-01-06 11:11:00,37.2,30.0,29.99,SW,232,1.0,6.0,74,0.00,,,0.00,weatherlink.com 1.10,2013-01-06 16:11:00,
2013-01-06 11:26:00,37.5,30.0,29.98,WSW,257,2.0,3.0,74,0.00,,,0.00,weatherlink.com 1.10,2013-01-06 16:26:00,
2013-01-06 11:41:00,38.0,30.0,29.97,SSW,208,2.0,5.0,73,0.00,,,0.00,weatherlink.com 1.10,2013-01-06 16:41:00,
2013-01-06 11:56:00,39.3,30.0,29.96,WSW,245,2.0,4.0,69,0.00,,,0.00,weatherlink.com 1.10,2013-01-06 16:56:00,
2013-01-06 12:12:00,40.2,31.0,29.95,WSW,257,0.0,2.0,69,0.00,,,0.00,weatherlink.com 1.10,2013-01-06 17:12:00,
2013-01-06 12:27:00,40.6,30.0,29.95,West,276,1.0,4.0,67,0.00,,,0.00,weatherlink.com 1.10,2013-01-06 17:27:00,
2013-01-06 12:42:00,40.9,31.0,29.94,WNW,287,0.0,3.0,67,0.00,,,0.00,weatherlink.com 1.10,2013-01-06 17:42:00,
2013-01-06 12:57:00,41.3,31.0,29.93,SSW,200,2.0,2.0,67,0.00,,,0.00,weatherlink.com 1.10,2013-01-06 17:57:00,
2013-01-06 13:12:00,41.3,30.0,29.93,SW,224,2.0,4.0,64,0.01,,,0.01,weatherlink.com 1.10,2013-01-06 18:12:00,
2013-01-06 13:28:00,41.7,31.0,29.93,West,274,0.0,2.0,65,0.01,,,0.01,weatherlink.com 1.10,2013-01-06 18:28:00,
2013-01-06 13:42:00,42.2,31.0,29.93,West,275,0.0,2.0,64,0.01,,,0.01,weatherlink.com 1.10,2013-01-06 18:42:00,
2013-01-06 13:57:00,42.3,31.0,29.93,West,263,0.0,3.0,64,0.01,,,0.01,weatherlink.com 1.10,2013-01-06 18:57:00,
2013-01-06 14:12:00,41.8,30.0,29.93,NW,311,0.0,5.0,64,0.01,,,0.02,weatherlink.com 1.10,2013-01-06 19:12:00,
2013-01-06 14:27:00,41.6,30.0,29.93,SW,232,0.0,3.0,64,0.01,,,0.02,weatherlink.com 1.10,2013-01-06 19:27:00,
2013-01-06 14:57:00,40.7,29.0,29.93,WNW,293,2.0,2.0,64,0.01,,,0.02,weatherlink.com 1.10,2013-01-06 19:57:00,
2013-01-06 15:27:00,39.7,30.0,29.93,WSW,246,0.0,1.0,68,0.00,,,0.02,weatherlink.com 1.10,2013-01-06 20:27:00,
2013-01-06 15:42:00,39.1,30.0,29.92,WSW,242,0.0,1.0,69,0.01,,,0.03,weatherlink.com 1.10,2013-01-06 20:42:00,
2013-01-06 15:57:00,38.5,29.0,29.93,West,281,0.0,1.0,69,0.01,,,0.03,weatherlink.com 1.10,2013-01-06 20:57:00,
2013-01-06 16:12:00,37.9,29.0,29.93,SSW,203,0.0,2.0,70,0.01,,,0.03,weatherlink.com 1.10,2013-01-06 21:12:00,
2013-01-06 16:27:00,37.1,28.0,29.93,West,262,0.0,1.0,71,0.01,,,0.03,weatherlink.com 1.10,2013-01-06 21:27:00,
2013-01-06 16:42:00,35.9,28.0,29.93,West,262,0.0,1.0,72,0.00,,,0.03,weatherlink.com 1.10,2013-01-06 21:42:00,
2013-01-06 16:57:00,34.4,28.0,29.94,West,262,0.0,1.0,77,0.00,,,0.03,weatherlink.com 1.10,2013-01-06 21:57:00,
2013-01-06 17:12:00,33.5,27.0,29.94,West,262,0.0,1.0,77,0.00,,,0.03,weatherlink.com 1.10,2013-01-06 22:12:00,
2013-01-06 17:27:00,32.6,27.0,29.94,West,262,0.0,1.0,79,0.00,,,0.03,weatherlink.com 1.10,2013-01-06 22:27:00,
2013-01-06 17:42:00,31.5,27.0,29.94,West,262,0.0,0.0,82,0.00,,,0.03,weatherlink.com 1.10,2013-01-06 22:42:00,
2013-01-06 17:57:00,30.8,26.0,29.95,West,262,0.0,0.0,83,0.00,,,0.03,weatherlink.com 1.10,2013-01-06 22:57:00,
2013-01-06 18:12:00,30.7,27.0,29.95,West,262,0.0,0.0,85,0.00,,,0.03,weatherlink.com 1.10,2013-01-06 23:12:00,
2013-01-06 18:27:00,30.7,27.0,29.95,West,262,0.0,0.0,86,0.00,,,0.03,weatherlink.com 1.10,2013-01-06 23:27:00,
2013-01-06 18:42:00,30.7,27.0,29.95,West,262,0.0,0.0,87,0.00,,,0.03,weatherlink.com 1.10,2013-01-06 23:42:00,
2013-01-06 18:57:00,30.6,27.0,29.95,West,262,0.0,1.0,87,0.00,,,0.03,weatherlink.com 1.10,2013-01-06 23:57:00,
2013-01-06 19:12:00,30.3,27.0,29.95,West,262,0.0,0.0,88,0.00,,,0.03,weatherlink.com 1.10,2013-01-07 00:12:00,
2013-01-06 19:27:00,30.1,27.0,29.95,West,262,0.0,1.0,88,0.00,,,0.03,weatherlink.com 1.10,2013-01-07 00:27:00,
2013-01-06 19:42:00,30.0,27.0,29.95,West,262,0.0,0.0,88,0.00,,,0.03,weatherlink.com 1.10,2013-01-07 00:42:00,
2013-01-06 19:57:00,29.9,27.0,29.95,West,262,0.0,0.0,88,0.00,,,0.03,weatherlink.com 1.10,2013-01-07 00:57:00,
2013-01-06 20:12:00,30.2,27.0,29.95,West,262,0.0,0.0,89,0.00,,,0.03,weatherlink.com 1.10,2013-01-07 01:12:00,
2013-01-06 20:27:00,30.5,28.0,29.95,West,262,0.0,1.0,90,0.00,,,0.03,weatherlink.com 1.10,2013-01-07 01:27:00,
2013-01-06 20:42:00,30.4,28.0,29.95,West,262,0.0,1.0,89,0.00,,,0.03,weatherlink.com 1.10,2013-01-07 01:42:00,
2013-01-06 20:57:00,30.3,28.0,29.95,West,262,0.0,0.0,89,0.00,,,0.03,weatherlink.com 1.10,2013-01-07 01:57:00,
2013-01-06 21:12:00,30.1,27.0,29.95,WSW,243,1.0,1.0,89,0.00,,,0.03,weatherlink.com 1.10,2013-01-07 02:12:00,
2013-01-06 21:27:00,30.2,27.0,29.94,SW,217,1.0,2.0,88,0.00,,,0.03,weatherlink.com 1.10,2013-01-07 02:27:00,
2013-01-06 21:42:00,30.5,27.0,29.95,SW,224,0.0,1.0,88,0.00,,,0.03,weatherlink.com 1.10,2013-01-07 02:42:00,
2013-01-06 21:57:00,30.5,27.0,29.95,SW,224,0.0,0.0,88,0.00,,,0.03,weatherlink.com 1.10,2013-01-07 02:57:00,
2013-01-06 22:12:00,30.7,27.0,29.95,SW,224,0.0,1.0,87,0.00,,,0.03,weatherlink.com 1.10,2013-01-07 03:12:00,
2013-01-06 22:27:00,30.8,27.0,29.95,SW,224,0.0,0.0,87,0.00,,,0.03,weatherlink.com 1.10,2013-01-07 03:27:00,
2013-01-06 22:57:00,29.7,27.0,29.95,SW,224,0.0,1.0,88,0.00,,,0.03,weatherlink.com 1.10,2013-01-07 03:57:00,
2013-01-06 23:12:00,29.0,26.0,29.95,SW,224,0.0,1.0,89,0.00,,,0.03,weatherlink.com 1.10,2013-01-07 04:12:00,
2013-01-06 23:27:00,28.3,26.0,29.95,SW,224,0.0,1.0,90,0.00,,,0.03,weatherlink.com 1.10,2013-01-07 04:27:00,
2013-01-06 23:42:00,28.1,26.0,29.94,SW,224,0.0,1.0,90,0.00,,,0.03,weatherlink.com 1.10,2013-01-07 04:42:00,
2013-01-06 23:57:00,27.7,26.0,29.95,SW,224,0.0,1.0,91,0.00,,,0.03,weatherlink.com 1.10,2013-01-07 04:57:00,